Regional Weather Roundup
Issued by NWS Jackson, KY

Home | Current Version | Previous Version | Graphics & Text | Print | Product List | Glossary On
Versions: 1 2 3 4 5 6 7 8 9 10 11 12 13 14 15 16 17 18 19 20 21 22 23 24 25 26 27 28 29 30 31 32 33 34 35 36 37 38 39 40 41 42 43 44 45 46 47 48 49 50
000
ASUS43 KJKL 011811
RWRJKL

EAST KENTUCKY HOURLY WEATHER ROUNDUP
NATIONAL WEATHER SERVICE JACKSON KY
200 PM EDT MON SEP 01 2014

NOTE: "FAIR" INDICATES FEW OR NO CLOUDS BELOW 12,000 FEET WITH
NO SIGNIFICANT WEATHER AND/OR OBSTRUCTIONS TO VISIBILITY.

* THESE REPORTS ARE NOT UNDER NWS QUALITY CONTROL AND MAY NOT
  REPORT WEATHER SUCH AS PRECIPITATION AND FOG.

KYZ079-080-083-085-087-088-110-112-115-119-120-011900
...EASTERN KENTUCKY...

CITY           SKY/WX    TMP DP  RH WIND       PRES   REMARKS
JACKSON        PTSUNNY   84  70  62 CALM      30.08F
6HR MIN TEMP:  71; 6HR MAX TEMP:  85;

LONDON         SUNNY     86  69  56 SW10G20   30.09F HX  90
6HR MIN TEMP:  73; 6HR MAX TEMP:  86;

SOMERSET*      MOSUNNY   86  68  54 W16       30.08S
MONTICELLO*    SUNNY     88  72  58 SW10      30.09F HX  94
6HR MIN TEMP:  74; 6HR MAX TEMP:  88;

WILLIAMSBURG*  MOSUNNY  N/A N/A N/A SW9         N/A
MIDDLESBORO*   PTSUNNY   85  71  63 S7        30.11F HX  90
6HR MIN TEMP:  68; 6HR MAX TEMP:  85;

HARLAN APT*    MOCLDY    84  64  51 MISG      30.13S
HAZARD APT*    MOCLDY    84  70  61 SW9       30.09
BLACK MTN*       N/A     73  68  83 SW6         N/A
PIKEVILLE APT* MOSUNNY   82  70  65 S7        30.10F
BIG SANDY*     CLOUDY    84  71  64 W6        30.08F
MOREHEAD APT*  PTCLDY    82  72  69 S10G21    30.04F
$$

KYZ035-036-041-042-044-050-067-078-099-011900
...CENTRAL KENTUCKY...

CITY           SKY/WX    TMP DP  RH WIND       PRES   REMARKS
MT STERLING*   RAIN      81  72  74 W12G24    30.03F
FLEMING/MASON* LGT RAIN  79  72  78 SW8       30.02S
DANVILLE*      CLOUDY    72  70  94 W5        30.07F
RICHMOND*      CLOUDY    73  70  88 W9G18     30.06R
LEXINGTON      MOSUNNY   77  72  84 SW14      30.03F
6HR MIN TEMP:  74; 6HR MAX TEMP:  84; 6HR PCP:  0.34;

FRANKFORT      PTSUNNY   83  71  67 SW21G26   30.00F
6HR MIN TEMP:  74; 6HR MAX TEMP:  84;

$$

KYZ091>093-OHZ055-061-077-WVZ005-015-034-035-042-011900
...SOUTHERN OHIO/WEST VIRGINIA...

CITY           SKY/WX    TMP DP  RH WIND       PRES   REMARKS
COVINGTON      PTSUNNY   76  71  85 S6        29.95F
COLUMBUS       CLOUDY    82  71  69 SW12G20   29.96F
DAYTON         PTSUNNY   84  70  62 S17G24    29.93F
WILMINGTON     PTSUNNY   80  69  69 SW18      29.96F
HUNTINGTON     MOSUNNY   83  71  67 VRB7      30.02F
CHARLESTON     PTSUNNY   85  71  63 SW12      30.05F HX  90
BECKLEY        MOSUNNY   80  63  55 W15G23    30.17S
BLUEFIELD      PTSUNNY   82  62  50 W13G25    30.21F
$$

VAZ002-007-008-TNZ017-027-036-066-071-011900
...SOUTHWEST VIRGINIA/EAST TENNESSEE...

CITY           SKY/WX    TMP DP  RH WIND       PRES   REMARKS
WISE*          PTSUNNY   81  63  54 SW15      30.21S
JONESVILLE*      N/A     84  68  58 SW7       30.15F
ABINGDON*      PTSUNNY   83  68  60 W8        30.18F
BRISTOL        MOSUNNY   85  66  53 W12       30.15F
KNOXVILLE      MOSUNNY   87  71  58 SW8       30.10F HX  93
OAK RIDGE      MOSUNNY   88  72  58 VRB6      30.12F HX  94
CROSSVILLE     MOSUNNY   83  66  56 SW8G21    30.16F
NASHVILLE      PTSUNNY   89  70  53 SW9       30.06F HX  94
$$

...KEY TO REMARKS...
VSB - VISIBILITY IN MILES
WCI - WIND CHILL INDEX
HX  - HEAT INDEX

$$



USA.gov is the U.S. government's official web portal to all federal, state and local government web resources and services.